| time (UTC) | temp F | wind direction | speed MPH | gust MPH | rain 1hr in | rain 24hr in | rain mn in | humidity % | barometer mb |
| 20260504183047 | 56 | 246 | 3.0 | 7.0 | 0.00 | 0.36 | 0.36 | 37 | 1001.5 |
| 20260504180038 | 58 | 270 | 5.0 | 9.0 | 0.00 | 0.36 | 0.36 | 35 | 1001.3 |
| 20260504173029 | 59 | 276 | 7.0 | 18.0 | 0.00 | 0.36 | 0.36 | 35 | 1001.2 |
| 20260504160122 | 62 | 271 | 7.0 | 18.0 | 0.00 | 0.36 | 0.36 | 46 | 1000.2 |
| 20260504070105 | 50 | 180 | 0.0 | 3.0 | 0.00 | 0.35 | 0.35 | 90 | 1000.4 |
| 20260504050113 | 44 | 180 | 0.0 | 1.0 | 0.05 | 0.33 | 0.33 | 95 | 1001.2 |
| 20260504043043 | 44 | 180 | 0.0 | 1.0 | 0.10 | 0.30 | 0.30 | 95 | 1001.3 |
| 20260504040033 | 43 | 180 | 0.0 | 1.0 | 0.12 | 0.27 | 0.27 | 94 | 1001.5 |
| 20260504033023 | 43 | 180 | 0.0 | 2.0 | 0.14 | 0.20 | 0.20 | 93 | 1001.7 |
| 20260504030136 | 43 | 180 | 0.0 | 2.0 | 0.11 | 0.14 | 0.14 | 92 | 1001.8 |
| 20260504023106 | 43 | 180 | 0.0 | 2.0 | 0.05 | 0.05 | 0.05 | 91 | 1002.1 |
| 20260504020136 | 43 | 180 | 0.0 | 2.0 | 0.02 | 0.02 | 0.02 | 91 | 1002.5 |
| 20260504013046 | 43 | 180 | 0.0 | 3.0 | 0.00 | 0.00 | 0.00 | 90 | 1003.2 |
| 20260504010056 | 43 | 154 | 0.0 | 3.0 | 0.00 | 0.00 | 0.00 | 90 | 1002.9 |
| 20260504003028 | 43 | 135 | 0.0 | 2.0 | 0.00 | 0.00 | 0.00 | 90 | 1003.2 |
| 20260504000018 | 42 | 157 | 0.0 | 1.0 | 0.00 | 0.00 | 0.00 | 90 | 1003.7 |
| 20260503233108 | 42 | 157 | 0.0 | 1.0 | 0.00 | 0.00 | 0.00 | 90 | 1003.7 |
| 20260503230118 | 42 | 157 | 0.0 | 2.0 | 0.00 | 0.00 | 0.00 | 90 | 1004.0 |
| 20260503223048 | 42 | 153 | 0.0 | 2.0 | 0.00 | 0.00 | 0.00 | 89 | 1004.3 |
| 20260503220038 | 42 | 157 | 0.0 | 1.0 | 0.00 | 0.00 | 0.00 | 88 | 1004.5 |
| 20260503213029 | 42 | 157 | 0.0 | 1.0 | 0.00 | 0.00 | 0.00 | 86 | 1004.8 |
| 20260503210021 | 42 | 157 | 0.0 | 1.0 | 0.00 | 0.00 | 0.00 | 84 | 1004.9 |
| 20260503203141 | 43 | 157 | 0.0 | 1.0 | 0.00 | 0.00 | 0.00 | 83 | 1005.1 |
| 20260503200121 | 44 | 157 | 0.0 | 1.0 | 0.00 | 0.00 | 0.00 | 82 | 1005.4 |
| 20260503193049 | 45 | 157 | 0.0 | 1.0 | 0.00 | 0.00 | 0.00 | 75 | 1005.3 |
| 20260503190040 | 47 | 157 | 0.0 | 3.0 | 0.00 | 0.00 | 0.00 | 72 | 1005.2 |